CW0451 Weather Reports


time (UTC)temp
C
wind
direction
speed
KPH
gust
KPH
rain 1hr
cm
rain 24hr
cm
rain mn
cm
humidity
%
barometer
mb
20260503055103 8 338 12.9 20.9 0.00 0.00 0.00 76 1008.2
20260503054102 8 347 9.7 20.9 0.00 0.00 0.00 83 1008.4
20260503053103 8 347 8.0 16.1 0.00 0.00 0.00 88 1008.5
20260503052102 8 336 9.7 16.1 0.00 0.00 0.00 91 1008.4
20260503051102 8 337 8.0 12.9 0.00 0.00 0.00 92 1008.5
20260503045103 8 326 4.8 12.9 0.00 0.00 0.00 92 1008.9
20260503044103 8 320 4.8 8.0 0.00 0.00 0.00 92 1009.1
20260503043102 8 330 4.8 6.4 0.00 0.00 0.00 92 1008.9
20260503042103 8 309 3.2 6.4 0.00 0.00 0.00 92 1009.0
20260503041102 8 329 3.2 4.8 0.00 0.00 0.00 92 1009.2
20260503035124 8 263 0.0 3.2 0.00 0.00 0.00 92 1009.4
20260503034102 8 263 0.0 3.2 0.00 0.00 0.00 92 1009.4
20260503033103 8 334 1.6 4.8 0.00 0.00 0.00 91 1009.3
20260503032124 8 308 3.2 4.8 0.00 0.00 0.00 91 1009.3
20260503031102 8 181 0.0 0.0 0.00 0.00 0.00 91 1009.3
20260503025124 8 181 0.0 0.0 0.00 0.00 0.00 91 1009.3
20260503024102 9 181 0.0 0.0 0.00 0.00 0.00 91 1009.4
20260503023103 9 181 0.0 0.0 0.00 0.00 0.00 91 1009.7
20260503022103 9 181 0.0 0.0 0.00 0.00 0.00 91 1009.6
20260503021103 9 180 0.0 3.2 0.00 0.00 0.00 91 1009.6
20260503015123 9 195 3.2 6.4 0.00 0.00 0.00 90 1009.9
20260503014103 9 174 3.2 4.8 0.00 0.00 0.00 90 1009.9
20260503013102 9 171 1.6 4.8 0.00 0.00 0.00 90 1009.9
20260503012102 9 161 1.6 3.2 0.00 0.00 0.00 89 1010.0
20260503011103 9 154 0.0 1.6 0.00 0.00 0.00 89 1009.9
20260503005103 9 148 1.6 6.4 0.00 0.00 0.00 89 1009.9
20260503004103 9 167 1.6 6.4 0.00 0.00 0.00 89 1009.8
20260503003102 10 156 4.8 8.0 0.00 0.00 0.00 88 1009.9
20260503002103 10 175 0.0 8.0 0.00 0.00 0.00 88 1009.8
20260503001102 10 149 4.8 8.0 0.00 0.00 0.00 88 1009.6
20260503000103 10 187 4.8 6.4 0.00 0.00 0.00 87 1009.8
20260502235103 10 216 3.2 3.2 0.00 0.00 0.00 87 1009.7
20260502234102 10 224 3.2 4.8 0.00 0.00 0.00 87 1009.8
20260502233103 10 212 3.2 6.4 0.00 0.00 0.00 87 1009.8
20260502232102 10 201 3.2 8.0 0.00 0.00 0.00 87 1009.7
20260502231103 10 231 4.8 11.3 0.00 0.00 0.00 87 1009.8
20260502225103 10 196 3.2 12.9 0.00 0.00 0.00 86 1009.9
20260502224124 10 218 4.8 11.3 0.00 0.00 0.00 85 1009.9
20260502223123 10 249 6.4 11.3 0.00 0.00 0.00 85 1009.8
20260502222103 10 217 3.2 11.3 0.00 0.00 0.00 85 1009.7
20260502221102 10 261 3.2 9.7 0.00 0.00 0.00 85 1009.7
20260502215102 10 283 1.6 6.4 0.00 0.00 0.00 85 1009.5
20260502214104 10 250 3.2 8.0 0.00 0.00 0.00 85 1009.6
20260502211103 10 193 8.0 14.5 0.00 0.00 0.00 85 1009.6
20260502205102 10 204 8.0 14.5 0.00 0.00 0.00 85 1009.7
20260502204103 11 194 14.5 19.3 0.00 0.00 0.00 84 1009.8
20260502203102 11 192 9.7 19.3 0.00 0.00 0.00 83 1009.8
20260502202103 11 196 14.5 27.4 0.00 0.00 0.00 83 1009.8
20260502201102 11 193 8.0 19.3 0.00 0.00 0.00 82 1010.0
20260502200124 11 219 4.8 22.5 0.00 0.00 0.00 82 1010.1
20260502195124 11 239 6.4 30.6 0.00 0.00 0.00 82 1010.2
20260502194102 11 205 12.9 27.4 0.00 0.00 0.00 82 1010.1
20260502193103 11 182 8.0 19.3 0.00 0.00 0.00 83 1010.2
20260502192103 11 220 6.4 16.1 0.00 0.00 0.00 84 1010.5
20260502191102 11 193 8.0 14.5 0.00 0.00 0.00 82 1010.6
20260502190124 11 226 4.8 14.5 0.00 0.00 0.00 80 1010.7
20260502185102 11 195 8.0 20.9 0.00 0.00 0.00 79 1010.6
20260502184102 11 205 16.1 32.2 0.00 0.00 0.00 75 1010.9
20260502183103 11 188 17.7 24.1 0.00 0.00 0.00 77 1010.8
20260502182102 12 199 11.3 20.9 0.00 0.00 0.00 74 1010.8
20260502181103 12 218 12.9 29.0 0.00 0.00 0.00 73 1010.8
20260502164102 13 189 12.9 22.5 0.00 0.00 0.00 75 1010.7
20260502163102 13 191 12.9 22.5 0.00 0.00 0.00 77 1010.7
20260502162102 13 172 12.9 22.5 0.00 0.00 0.00 77 1010.8
20260502161103 13 194 16.1 22.5 0.00 0.00 0.00 75 1011.0
20260502152102 13 212 12.9 19.3 0.00 0.00 0.00 73 1011.6
20260502151103 14 191 11.3 20.9 0.00 0.00 0.00 77 1011.1
20260502130123 11 252 6.4 12.9 0.00 0.00 0.00 82 1012.1
20260502123102 11 243 8.0 19.3 0.00 0.00 0.00 81 1012.0
20260502122124 11 225 11.3 20.9 0.00 0.00 0.00 81 1012.0
20260502121103 11 247 9.7 19.3 0.00 0.00 0.00 83 1011.9
20260502115102 10 215 8.0 12.9 0.00 0.00 0.00 83 1011.7
20260502114102 10 202 6.4 17.7 0.00 0.00 0.00 84 1011.5
20260502113102 10 215 8.0 17.7 0.00 0.00 0.00 84 1011.5
20260502112102 9 210 4.8 11.3 0.00 0.00 0.00 85 1011.6
20260502111102 8 194 4.8 8.0 0.00 0.00 0.00 85 1011.5
20260502110104 8 192 6.4 11.3 0.00 0.00 0.00 85 1011.7
20260502105102 8 202 6.4 9.7 0.00 0.00 0.00 87 1011.6
20260502104103 7 229 3.2 6.4 0.00 0.00 0.00 88 1011.2
20260502103102 7 189 4.8 6.4 0.00 0.00 0.00 87 1011.2
20260502102104 7 205 1.6 4.8 0.00 0.00 0.00 87 1011.2
20260502101103 6 237 3.2 11.3 0.00 0.00 0.00 87 1011.4
20260502091102 6 232 3.2 8.0 0.00 0.00 0.00 87 1011.1
20260502071103 6 242 1.6 3.2 0.00 0.00 0.00 88 1010.9
20260502065102 6 228 1.6 4.8 0.00 0.00 0.00 87 1011.0
20260502064103 6 255 1.6 3.2 0.00 0.00 0.00 87 1011.1
20260502063102 6 255 1.6 4.8 0.00 0.00 0.00 87 1011.2
20260502062103 6 210 3.2 6.4 0.00 0.00 0.00 85 1011.2
20260502061102 6 205 1.6 4.8 0.00 0.00 0.00 84 1011.0